[[{"header":{"parameterUnit":"m.s-1","parameterCategory":2,"la1":30.2991,"la2":30.254,"lo1":-89.0895,"lo2":-89.0444,"dy":0.0017,"dx":0.0017,"nx":28,"ny":28,"refTime":"2025-01-17T03:00:00:Z","depth":"0","parameterNumber":2,"parameterNumberName":"U-component_of_CURRENTS"},"data":[0,0,0,0,0,0,0,0,0,0,0,0,0,0,0,0,0,0,0,0,0,0,0,0,0,0,0,0,0,0,0,0,0,0,0,0,0,0,0,0,0,0,0,0,0,0,0,0,0,0,0,0,0,0,0,0,0,0,0.2543,0.2543,0,0.2582,0.2582,0.2583,0.2559,0.2558,0.2557,0.2556,0.2441,0.2439,0.2437,0,0,0,0,0,0,0,0,0,0,0,0,0,0.2468,0.2469,0.2543,0.2543,0.2544,0.2582,0.2582,0.2583,0.256,0.2558,0.2557,0.2556,0.2442,0.244,0.2437,0,0,0,0,0,0,0,0,0,0,0,0,0,0.2502,0.2469,0.2542,0.2538,0.2538,0.2582,0.2582,0.2583,0.256,0.2558,0.2557,0.2555,0.2443,0.244,0.2437,0.2447,0,0,0.2427,0.2426,0,0,0,0,0,0,0,0,0.25,0.2504,0.2538,0.2538,0.2538,0.2565,0.2514,0.253,0.256,0.255,0.2556,0.2555,0.247,0.2465,0.2476,0.2442,0.2437,0.2427,0.2425,0.2423,0.2423,0,0,0,0,0,0,0,0.2497,0.2503,0.2557,0.2539,0.2539,0.2541,0.2543,0.2518,0.2514,0.2551,0.255,0.2556,0.2469,0.248,0.2473,0.2435,0.2427,0.2424,0.2422,0.2421,0.2465,0.2468,0,0,0,0,0,0,0.2496,0.2501,0.2556,0.2558,0.2516,0.2543,0.2546,0.2557,0.2518,0.2512,0.2558,0.2555,0.2486,0.2477,0.2468,0.249,0.2423,0.242,0.2419,0.2462,0.2466,0.2469,0,0,0,0,0,0,0.2494,0.2501,0.2554,0.2531,0.2538,0.2546,0.2558,0.2559,0.2566,0.2525,0.2516,0.2564,0.2484,0.2473,0.2481,0.2485,0.2419,0.2416,0.2458,0.2463,0.2467,0.2525,0,0,0,0,0,0,0.2492,0.25,0.2508,0.2531,0.2539,0.2573,0.256,0.2561,0.2574,0.2571,0.2528,0.2516,0.2482,0.2486,0.2478,0.2479,0.2414,0.2454,0.246,0.2466,0.252,0.2532,0.2542,0,0,0,0,0,0.2489,0.2492,0.2508,0.2514,0.2549,0.2574,0.2578,0.2578,0.2575,0.2579,0.2582,0.2517,0.2516,0.2487,0.2476,0.2476,0.2452,0.2459,0.2465,0.2515,0.2529,0.2541,0,0,0,0,0,0,0.2446,0.2492,0.2508,0.2521,0.2548,0.257,0.257,0.2585,0.2594,0.2586,0.2554,0.2544,0.2556,0.2526,0.2494,0.2516,0.2474,0.2479,0.2515,0.2528,0.2539,0.2517,0.2411,0,0,0,0,0,0.2449,0.247,0.2511,0.2519,0.2533,0.2559,0.257,0.2577,0.259,0.2592,0.2575,0.2569,0.258,0.2561,0.2561,0.256,0.2571,0.2561,0.2572,0.2581,0.2563,0.262,0.2633,0.2492,0.2492,0.2492,0,0,0.243,0.2461,0.2469,0.2514,0.253,0.2552,0.256,0.2575,0.2591,0.2576,0.2586,0.2604,0.2598,0.2614,0.2613,0.2579,0.2639,0.259,0.2597,0.2573,0.2628,0.2641,0.2653,0.2497,0.2496,0.2495,0,0,0.2401,0.2436,0.2444,0.2475,0.2513,0.254,0.2548,0.2582,0.2591,0.2619,0.2633,0.2668,0.2651,0.2669,0.2672,0.2745,0.2708,0.274,0.275,0.2807,0.2817,0.2827,0.2901,0.2916,0.2728,0.2729,0.2729,0,0.2376,0.2397,0.2446,0.2466,0.2482,0.2536,0.2542,0.2575,0.261,0.2623,0.2618,0.268,0.2677,0.2722,0.2758,0.2761,0.2794,0.2691,0.2817,0.2827,0.2835,0.2908,0.2924,0.2732,0.2732,0.2731,0.2731,0,0.2361,0.2379,0.2382,0.2435,0.2464,0.2476,0.2534,0.2565,0.259,0.2622,0.2674,0.2715,0.2741,0.2767,0.2775,0.2845,0.2854,0.2835,0.2772,0.2852,0.2926,0.2941,0.2737,0.2736,0.2735,0.2734,0,0,0.2292,0.2358,0.2357,0.2371,0.2445,0.2461,0.2507,0.2556,0.2582,0.2636,0.2664,0.274,0.2772,0.2783,0.2821,0.2874,0.2993,0.2877,0.2878,0.293,0.3139,0.3105,0.3119,0.2993,0.2995,0.2997,0.318,0,0.2257,0.2274,0.2324,0.2338,0.2349,0.2421,0.2458,0.2518,0.2569,0.2617,0.2688,0.2732,0.2776,0.2798,0.2869,0.2959,0.3031,0.2946,0.3069,0.3073,0.3015,0.3133,0.2973,0.3117,0.3195,0.3197,0.3199,0,0.2221,0.2241,0.2239,0.2289,0.2299,0.2322,0.2388,0.243,0.2528,0.2567,0.2644,0.2701,0.2814,0.2823,0.302,0.2964,0.3055,0.3125,0.3133,0.3078,0.3066,0.3045,0.3143,0.2951,0.3223,0.3221,0.3219,0,0.2139,0.2176,0.2167,0.2186,0.2259,0.2266,0.2308,0.2402,0.2439,0.2537,0.2573,0.2709,0.2774,0.291,0.3065,0.3051,0.3265,0.3259,0.3322,0.3322,0.3194,0.3178,0.3092,0.3389,0.3389,0.3388,0.3388,0,0.2081,0.2073,0.2124,0.2122,0.2122,0.2193,0.221,0.2281,0.2369,0.2419,0.2536,0.2608,0.2797,0.2937,0.3073,0.3253,0.3281,0.3346,0.3368,0.3217,0.3201,0.3032,0.2969,0.3395,0.3394,0.3392,0.3391,0,0.199,0.2023,0.2019,0.2069,0.2082,0.2081,0.2147,0.2169,0.2267,0.2337,0.2366,0.2555,0.275,0.2934,0.3167,0.3259,0.3314,0.3472,0.3291,0.3288,0.3157,0.3106,0.3039,0.2966,0.3591,0.3591,0.3591,0,0.1937,0.1925,0.1964,0.1955,0.1969,0.1983,0.1998,0.2103,0.2144,0.231,0.2342,0.2538,0.2685,0.3014,0.3205,0.344,0.3312,0.3406,0.3343,0.3137,0.3098,0.2993,0.2928,0.323,0.3227,0.3225,0.3223,0,0.1835,0.1852,0.1855,0.1856,0.1855,0.1862,0.1899,0.1929,0.2062,0.214,0.2288,0.2412,0.2727,0.2892,0.3166,0.3302,0.3172,0.3368,0.3189,0.284,0.2683,0.2625,0.3137,0.3203,0.3205,0.3206,0.3208,0.3208,0.1751,0.1735,0.1747,0.174,0.174,0.174,0.1735,0.181,0.188,0.2011,0.2181,0.2338,0.2543,0.2924,0.302,0.3015,0.3091,0.2938,0.2915,0.2843,0.268,0.3158,0.3213,0.3215,0.3217,0.3218,0.3219,0,0.1646,0.1642,0.163,0.1621,0.1585,0.1629,0.1663,0.1667,0.1732,0.1901,0.2033,0.221,0.2332,0.2498,0.2593,0.2528,0.2477,0.2447,0.2214,0.2197,0.2642,0.2523,0.2383,0.2383,0.2383,0.2383,0.2384,0.2384,0.1583,0.1545,0.1552,0.1473,0.1461,0.1418,0.1426,0.1468,0.1571,0.1697,0.1808,0.1954,0.2057,0.2053,0.1974,0.1987,0.1821,0.1772,0.1797,0.2019,0.206,0.2098,0.1965,0.1711,0.171,0.1234,0.123,0.1227]},{"header":{"parameterUnit":"m.s-1","parameterCategory":2,"la1":30.2991,"la2":30.254,"lo1":-89.0895,"lo2":-89.0444,"dy":0.0017,"dx":0.0017,"nx":28,"ny":28,"refTime":"2025-01-17T03:00:00:Z","depth":"0","parameterNumber":3,"parameterNumberName":"V-component_of_CURRENTS"},"data":[0,0,0,0,0,0,0,0,0,0,0,0,0,0,0,0,0,0,0,0,0,0,0,0,0,0,0,0,0,0,0,0,0,0,0,0,0,0,0,0,0,0,0,0,0,0,0,0,0,0,0,0,0,0,0,0,0,0,-0.0248,-0.0248,0,-0.0275,-0.0276,-0.0276,-0.0316,-0.0316,-0.0317,-0.0317,-0.0373,-0.0374,-0.0375,0,0,0,0,0,0,0,0,0,0,0,0,0,-0.0237,-0.0237,-0.0248,-0.0248,-0.0248,-0.0275,-0.0276,-0.0276,-0.0316,-0.0316,-0.0317,-0.0318,-0.0373,-0.0374,-0.0376,0,0,0,0,0,0,0,0,0,0,0,0,0,-0.0253,-0.0237,-0.0248,-0.027,-0.0272,-0.0275,-0.0276,-0.0276,-0.0316,-0.0316,-0.0317,-0.0318,-0.0373,-0.0374,-0.0376,-0.037,0,0,-0.038,-0.0381,0,0,0,0,0,0,0,0,-0.0252,-0.0253,-0.0266,-0.0268,-0.027,-0.0291,-0.0292,-0.0308,-0.0316,-0.0301,-0.0317,-0.0318,-0.0347,-0.035,-0.0356,-0.0372,-0.0375,-0.038,-0.0381,-0.0382,-0.0382,0,0,0,0,0,0,0,-0.0251,-0.0252,-0.026,-0.0266,-0.0269,-0.0281,-0.0284,-0.0296,-0.0321,-0.0302,-0.0305,-0.0305,-0.0349,-0.0355,-0.0358,-0.0376,-0.038,-0.0382,-0.0383,-0.0383,-0.0328,-0.0326,0,0,0,0,0,0,-0.0242,-0.0251,-0.026,-0.0261,-0.0261,-0.028,-0.0284,-0.0285,-0.0321,-0.0326,-0.0304,-0.0306,-0.0352,-0.0356,-0.036,-0.0313,-0.0382,-0.0383,-0.0384,-0.0331,-0.0328,-0.0325,0,0,0,0,0,0,-0.0242,-0.0243,-0.0258,-0.0255,-0.0258,-0.0279,-0.0281,-0.0285,-0.0291,-0.0321,-0.0328,-0.0304,-0.0352,-0.0358,-0.0356,-0.0317,-0.0384,-0.0386,-0.0334,-0.033,-0.0327,-0.0246,0,0,0,0,0,0,-0.0241,-0.0242,-0.0241,-0.0255,-0.0258,-0.0255,-0.028,-0.0285,-0.0289,-0.0292,-0.0323,-0.0329,-0.0354,-0.0353,-0.0357,-0.032,-0.0387,-0.0337,-0.0332,-0.0328,-0.0251,-0.024,-0.023,0,0,0,0,0,-0.0241,-0.0236,-0.0241,-0.0242,-0.0255,-0.0254,-0.0256,-0.0276,-0.0288,-0.0285,-0.0298,-0.0328,-0.0327,-0.0353,-0.0358,-0.0321,-0.0339,-0.0333,-0.0328,-0.0256,-0.0242,-0.023,0,0,0,0,0,0,-0.0233,-0.024,-0.0246,-0.0244,-0.0245,-0.026,-0.0261,-0.0269,-0.0277,-0.0282,-0.0311,-0.0317,-0.0297,-0.0316,-0.0344,-0.0287,-0.0332,-0.0328,-0.0276,-0.0263,-0.0252,-0.0244,-0.0388,0,0,0,0,0,-0.0229,-0.0227,-0.0232,-0.023,-0.023,-0.0243,-0.0245,-0.0253,-0.0261,-0.0267,-0.0281,-0.0287,-0.0277,-0.0278,-0.0281,-0.026,-0.0266,-0.0233,-0.0222,-0.0213,-0.0206,-0.0161,-0.0146,-0.0308,-0.0308,-0.0308,0,0,-0.0226,-0.0228,-0.0228,-0.0228,-0.0234,-0.0222,-0.0247,-0.0245,-0.0227,-0.027,-0.0253,-0.0256,-0.0263,-0.0233,-0.0225,-0.0248,-0.0171,-0.0206,-0.0199,-0.0197,-0.0154,-0.0139,-0.0125,-0.0304,-0.0305,-0.0305,0,0,-0.0213,-0.022,-0.0212,-0.0207,-0.0205,-0.0208,-0.0202,-0.0206,-0.0203,-0.0186,-0.0197,-0.0171,-0.0179,-0.0158,-0.0152,-0.0081,-0.0116,-0.0081,-0.0024,0.002,0.0033,0.0045,0.0048,0.0059,-0.0076,-0.0075,-0.0075,0,-0.0211,-0.0195,-0.0208,-0.0193,-0.0179,-0.0196,-0.0171,-0.0169,-0.0167,-0.0144,-0.0171,-0.0122,-0.0134,-0.0069,-0.0046,-0.0056,-0.0056,-0.0077,0.0033,0.0045,0.0055,0.0055,0.0067,-0.0071,-0.0071,-0.0072,-0.0072,0,-0.0188,-0.0171,-0.0164,-0.0148,-0.0135,-0.0118,-0.0109,-0.009,-0.0087,-0.0075,-0.0017,-0.0019,0.0011,0.0024,0.0002,0.0087,0.0052,0.004,-0.0003,0.0076,0.0071,0.0082,-0.0064,-0.0066,-0.0067,-0.0068,0,0,-0.019,-0.0154,-0.015,-0.012,-0.0104,-0.0084,-0.0049,-0.0006,0.0041,0.0045,0.0112,0.0138,0.0138,0.0147,0.0143,0.0181,0.0247,0.014,0.014,0.0135,0.0315,0.0289,0.0297,0.025,0.0253,0.0255,0.0277,0,-0.0164,-0.0114,-0.0105,-0.0047,-0.0013,-0.0001,0.0045,0.0082,0.0108,0.0164,0.0183,0.0229,0.0184,0.0208,0.0242,0.0249,0.028,0.024,0.0245,0.0245,0.0207,0.0311,0.0361,0.0386,0.0287,0.0288,0.0289,0,-0.0136,-0.0101,-0.0039,0.0037,0.0053,0.0083,0.0171,0.0208,0.0273,0.0295,0.0337,0.0336,0.0388,0.0339,0.0386,0.0359,0.0343,0.0342,0.0343,0.0298,0.024,0.0294,0.0407,0.0285,0.0305,0.0304,0.0302,0,-0.0102,-0.0046,0.0014,0.0034,0.0104,0.0144,0.0183,0.0254,0.0315,0.0374,0.0421,0.0458,0.0492,0.0488,0.0456,0.0427,0.0501,0.0461,0.0424,0.0419,0.0454,0.0449,0.0447,0.0508,0.0508,0.0508,0.0508,0,-0.0059,-0.0008,0.0034,0.0072,0.0159,0.0187,0.0288,0.033,0.0411,0.0502,0.0486,0.0566,0.0535,0.0557,0.0507,0.0499,0.0538,0.0457,0.0444,0.0481,0.0479,0.0364,0.0296,0.0509,0.0509,0.0509,0.0509,0,-0.0011,0.0009,0.0089,0.0159,0.0181,0.0247,0.0346,0.0426,0.0477,0.0593,0.0612,0.0666,0.0696,0.065,0.0656,0.058,0.0523,0.0545,0.0565,0.0555,0.0386,0.0322,0.0347,0.0313,0.0511,0.051,0.051,0,0.0028,0.007,0.0151,0.0199,0.0233,0.0318,0.0389,0.0456,0.054,0.0666,0.0734,0.0787,0.0861,0.0835,0.073,0.0649,0.0554,0.0599,0.0562,0.0407,0.0327,0.0298,0.0266,0.0633,0.0634,0.0634,0.0635,0,0.0112,0.0131,0.0192,0.028,0.0351,0.0445,0.054,0.0615,0.0707,0.0806,0.0947,0.1016,0.0995,0.0967,0.0825,0.0751,0.0541,0.0608,0.0477,0.0456,0.0403,0.0353,0.0542,0.0641,0.0641,0.064,0.064,0.064,0.0173,0.0229,0.0292,0.0377,0.0461,0.0571,0.066,0.0767,0.0911,0.1081,0.1118,0.126,0.1155,0.0997,0.0859,0.0592,0.0586,0.0504,0.0447,0.0437,0.0394,0.0567,0.0628,0.0627,0.0627,0.0626,0.0626,0,0.0243,0.0298,0.0386,0.049,0.0588,0.0616,0.0766,0.0865,0.1037,0.1212,0.1348,0.1407,0.1246,0.1029,0.0672,0.0466,0.0414,0.034,0.0318,0.0297,0.0488,0.0478,0.0476,0.0476,0.0476,0.0476,0.0477,0.0477,0.0289,0.0369,0.0408,0.0571,0.0651,0.0789,0.0879,0.103,0.1179,0.1406,0.1532,0.1624,0.1414,0.0786,0.0357,0.0267,0.0119,0.0124,0.0008,0.0115,0.0126,0.0135,0.011,0.0031,0.0031,-0.0121,-0.0123,-0.0125]}],[{"header":{"parameterUnit":"m.s-1","parameterCategory":2,"la1":30.2991,"la2":30.254,"lo1":-89.0895,"lo2":-89.0444,"dy":0.0017,"dx":0.0017,"nx":28,"ny":28,"refTime":"2025-01-17T03:00:00:Z","depth":"2","parameterNumber":2,"parameterNumberName":"U-component_of_CURRENTS"},"data":[0,0,0,0,0,0,0,0,0,0,0,0,0,0,0,0,0,0,0,0,0,0,0,0,0,0,0,0,0,0,0,0,0,0,0,0,0,0,0,0,0,0,0,0,0,0,0,0,0,0,0,0,0,0,0,0,0,0,0.267,0.267,0,0.2654,0.2653,0.2653,0.2613,0.2613,0.2613,0.2613,0.2552,0.255,0.2549,0,0,0,0,0,0,0,0,0,0,0,0,0,0.267,0.267,0.267,0.267,0.2671,0.2654,0.2653,0.2653,0.2613,0.2613,0.2613,0.2612,0.2552,0.2551,0.2549,0,0,0,0,0,0,0,0,0,0,0,0,0,0.2658,0.267,0.267,0.2654,0.2652,0.2654,0.2653,0.2652,0.2614,0.2613,0.2613,0.2612,0.2553,0.2551,0.2549,0.2545,0,0,0.2543,0.2542,0,0,0,0,0,0,0,0,0.2659,0.2658,0.2656,0.2655,0.2653,0.264,0.2632,0.2616,0.2614,0.2622,0.2613,0.2612,0.2581,0.2577,0.2567,0.2542,0.254,0.2542,0.2541,0.254,0.254,0,0,0,0,0,0,0,0.266,0.2658,0.2658,0.2656,0.2655,0.2649,0.2646,0.2628,0.2599,0.2621,0.262,0.2628,0.258,0.2569,0.2566,0.2539,0.2543,0.2541,0.2539,0.2539,0.2625,0.2629,0,0,0,0,0,0,0.2674,0.2659,0.2658,0.2658,0.2662,0.2649,0.2646,0.264,0.26,0.2596,0.2628,0.2626,0.2573,0.2568,0.2563,0.2621,0.254,0.2538,0.2537,0.2622,0.2626,0.263,0,0,0,0,0,0,0.2674,0.2673,0.2659,0.2664,0.2662,0.265,0.2644,0.264,0.2657,0.2607,0.26,0.2653,0.2572,0.2566,0.26,0.2615,0.2538,0.2536,0.2618,0.2623,0.2628,0.2694,0,0,0,0,0,0,0.2673,0.2673,0.2686,0.2664,0.2663,0.2682,0.2645,0.2641,0.2664,0.2661,0.2626,0.2618,0.2572,0.2604,0.2598,0.2611,0.2534,0.2613,0.262,0.2626,0.2688,0.2701,0.2713,0,0,0,0,0,0.2673,0.2679,0.2686,0.2688,0.2676,0.2684,0.2682,0.2668,0.2666,0.2681,0.2681,0.262,0.2641,0.2606,0.2598,0.261,0.261,0.2618,0.2626,0.2682,0.2698,0.2712,0,0,0,0,0,0,0.2685,0.2676,0.2683,0.2687,0.2702,0.268,0.2693,0.2694,0.2704,0.2706,0.2663,0.2656,0.2688,0.2664,0.2626,0.2665,0.2617,0.2624,0.2662,0.2677,0.269,0.2661,0.2532,0,0,0,0,0,0.2699,0.2701,0.2703,0.2715,0.2724,0.2721,0.2729,0.2724,0.2726,0.2729,0.2712,0.2707,0.2711,0.2709,0.2702,0.2724,0.2722,0.2735,0.2747,0.2757,0.2736,0.2791,0.2806,0.2656,0.2656,0.2656,0,0,0.2708,0.2707,0.2709,0.272,0.2725,0.273,0.2723,0.2743,0.2748,0.2722,0.2736,0.2748,0.2733,0.2754,0.2766,0.2736,0.2808,0.2767,0.2775,0.2748,0.2801,0.2815,0.2827,0.2661,0.266,0.2659,0,0,0.2716,0.273,0.2732,0.2744,0.2766,0.2763,0.2782,0.2785,0.2791,0.2821,0.281,0.2848,0.2841,0.2836,0.2831,0.2918,0.2876,0.2925,0.2949,0.3005,0.3016,0.3026,0.3067,0.308,0.2926,0.2926,0.2926,0,0.2736,0.2728,0.2741,0.2746,0.2754,0.2782,0.2787,0.2798,0.2816,0.2835,0.2835,0.2879,0.287,0.2899,0.2928,0.2937,0.2963,0.2882,0.3016,0.3026,0.3035,0.3074,0.3088,0.293,0.2929,0.2929,0.2929,0,0.2732,0.2739,0.2746,0.2753,0.2769,0.2784,0.28,0.2832,0.2855,0.2868,0.2926,0.2941,0.2963,0.2982,0.297,0.3035,0.3034,0.3027,0.2964,0.3053,0.3091,0.3103,0.2936,0.2934,0.2933,0.2932,0,0,0.2741,0.2741,0.2746,0.2747,0.2773,0.2779,0.281,0.2843,0.2864,0.2916,0.2946,0.2992,0.3022,0.3022,0.3037,0.3082,0.3179,0.3082,0.3083,0.3097,0.3305,0.3054,0.3043,0.3202,0.3204,0.3206,0.3314,0,0.2741,0.2735,0.2739,0.2746,0.2746,0.278,0.2797,0.2837,0.2875,0.2916,0.2975,0.3006,0.303,0.3049,0.3109,0.3152,0.3212,0.315,0.3237,0.3238,0.2983,0.3048,0.277,0.2819,0.3325,0.3327,0.3329,0,0.2732,0.2729,0.2723,0.2731,0.2736,0.2743,0.2784,0.2807,0.2878,0.291,0.298,0.3016,0.3096,0.3099,0.3236,0.3201,0.3258,0.3296,0.3301,0.3037,0.3007,0.2811,0.2822,0.3349,0.3347,0.3346,0.3344,0,0.2712,0.2717,0.2708,0.2711,0.2726,0.2737,0.2757,0.2812,0.2833,0.2909,0.2939,0.3041,0.3092,0.3188,0.328,0.3269,0.3419,0.3411,0.3248,0.3233,0.2989,0.2944,0.3511,0.3511,0.3511,0.3511,0.351,0,0.2696,0.2695,0.2696,0.269,0.2687,0.2714,0.2726,0.2765,0.2818,0.2846,0.2936,0.2974,0.3121,0.3219,0.3297,0.3297,0.3447,0.324,0.3234,0.3005,0.2963,0.3407,0.3393,0.3515,0.3514,0.3513,0.3512,0,0.2672,0.2675,0.2662,0.267,0.267,0.2671,0.269,0.2699,0.2766,0.2805,0.2829,0.2953,0.306,0.3191,0.3342,0.328,0.3326,0.3302,0.3004,0.2954,0.3102,0.3092,0.3096,0.3087,0.308,0.3075,0.307,0,0.2655,0.2643,0.2634,0.2617,0.2617,0.2619,0.2614,0.2666,0.2676,0.278,0.2793,0.2911,0.2942,0.3042,0.2976,0.3006,0.3232,0.2749,0.2628,0.306,0.3057,0.3057,0.3056,0.2383,0.2373,0.2365,0.2358,0,0.262,0.2617,0.2603,0.2567,0.2548,0.2529,0.2533,0.2534,0.2601,0.2632,0.2693,0.2719,0.2726,0.2566,0.2538,0.2536,0.2695,0.2566,0.315,0.2478,0.2381,0.238,0.2405,0.2285,0.2292,0.2298,0.2302,0.2304,0.2591,0.2567,0.2541,0.2506,0.2476,0.2437,0.2408,0.2412,0.2413,0.2363,0.2462,0.2355,0.2291,0.2027,0.2012,0.1996,0.216,0.2087,0.2118,0.2156,0.2,0.189,0.1675,0.1679,0.1682,0.1685,0.1688,0,0.2537,0.2513,0.2477,0.2417,0.2356,0.2369,0.2341,0.228,0.2241,0.2104,0.2042,0.1715,0.1532,0.1604,0.1386,0.1309,0.1376,0.1339,0.143,0.1498,0.1559,0.1381,0.0889,0.0888,0.0886,0.0885,0,0,0.2503,0.2447,0.2423,0.2311,0.2269,0.2174,0.2148,0.2052,0.1939,0.1658,0.146,0.1314,0.1401,0.1064,0.1021,0.0948,0.1242,0.0916,0.1535,0.1704,0.1765,0.1938,0.1728,0,0,0,0,0]},{"header":{"parameterUnit":"m.s-1","parameterCategory":2,"la1":30.2991,"la2":30.254,"lo1":-89.0895,"lo2":-89.0444,"dy":0.0017,"dx":0.0017,"nx":28,"ny":28,"refTime":"2025-01-17T03:00:00:Z","depth":"2","parameterNumber":3,"parameterNumberName":"V-component_of_CURRENTS"},"data":[0,0,0,0,0,0,0,0,0,0,0,0,0,0,0,0,0,0,0,0,0,0,0,0,0,0,0,0,0,0,0,0,0,0,0,0,0,0,0,0,0,0,0,0,0,0,0,0,0,0,0,0,0,0,0,0,0,0,0.0001,-0.0,0,-0.0104,-0.0105,-0.0106,-0.0186,-0.0187,-0.0188,-0.0188,-0.0286,-0.0288,-0.0289,0,0,0,0,0,0,0,0,0,0,0,0,0,0.0094,0.0093,0.0001,-0.0,-0.0002,-0.0104,-0.0105,-0.0107,-0.0186,-0.0187,-0.0188,-0.0189,-0.0285,-0.0287,-0.029,0,0,0,0,0,0,0,0,0,0,0,0,0,0.0029,0.0093,0.0001,-0.0054,-0.006,-0.0104,-0.0105,-0.0107,-0.0186,-0.0187,-0.0188,-0.0189,-0.0284,-0.0287,-0.029,-0.0285,0,0,-0.0299,-0.03,0,0,0,0,0,0,0,0,0.0032,0.0025,-0.0044,-0.005,-0.0057,-0.0133,-0.0108,-0.0166,-0.0186,-0.0138,-0.0188,-0.019,-0.0233,-0.024,-0.0257,-0.0289,-0.0294,-0.0299,-0.0301,-0.0302,-0.0303,0,0,0,0,0,0,0,0.0037,0.0029,-0.0041,-0.0046,-0.0053,-0.0086,-0.0096,-0.012,-0.0178,-0.0142,-0.0148,-0.016,-0.0237,-0.0255,-0.026,-0.0295,-0.0299,-0.0301,-0.0303,-0.0304,-0.0382,-0.0383,0,0,0,0,0,0,0.0053,0.0034,-0.0037,-0.0044,-0.0014,-0.0087,-0.0098,-0.0107,-0.0178,-0.019,-0.0159,-0.0163,-0.0249,-0.0257,-0.0264,-0.0275,-0.0302,-0.0304,-0.0306,-0.0382,-0.0383,-0.0383,0,0,0,0,0,0,0.0055,0.0048,-0.0033,-0.0008,-0.002,-0.0087,-0.0097,-0.0109,-0.0143,-0.019,-0.0203,-0.0182,-0.025,-0.026,-0.0307,-0.0279,-0.0306,-0.0308,-0.0382,-0.0382,-0.0383,-0.0289,0,0,0,0,0,0,0.0059,0.0049,0.0048,-0.0006,-0.0021,-0.0059,-0.0096,-0.011,-0.0147,-0.0155,-0.0214,-0.0223,-0.0252,-0.0303,-0.031,-0.0283,-0.031,-0.0381,-0.0382,-0.0383,-0.0291,-0.0286,-0.0281,0,0,0,0,0,0.0062,0.0066,0.0049,0.004,-0.0021,-0.0059,-0.0069,-0.0121,-0.0147,-0.0157,-0.021,-0.0222,-0.0312,-0.0306,-0.0314,-0.0287,-0.0381,-0.0382,-0.0383,-0.0294,-0.0287,-0.0282,0,0,0,0,0,0,0.01,0.0057,0.0036,0.0025,-0.0014,-0.0073,-0.0084,-0.0122,-0.0172,-0.0179,-0.0232,-0.0245,-0.0274,-0.0304,-0.0296,-0.0317,-0.0346,-0.0348,-0.0275,-0.027,-0.0265,-0.0225,-0.0313,0,0,0,0,0,0.0111,0.0105,0.0054,0.0044,0.003,-0.0028,-0.0051,-0.0085,-0.0135,-0.0158,-0.0203,-0.0249,-0.028,-0.0296,-0.0332,-0.0342,-0.0347,-0.0333,-0.0328,-0.0323,-0.0299,-0.0296,-0.0287,-0.0386,-0.0386,-0.0386,0,0,0.0122,0.0098,0.0092,0.0052,0.0021,0.0014,-0.0045,-0.0073,-0.0079,-0.0158,-0.0183,-0.0236,-0.0285,-0.03,-0.0313,-0.0321,-0.0299,-0.0324,-0.0319,-0.0298,-0.0296,-0.0286,-0.0276,-0.0386,-0.0386,-0.0386,0,0,0.0147,0.0122,0.0128,0.0106,0.0066,0.0038,0.003,-0.003,-0.0055,-0.0092,-0.0145,-0.0182,-0.0242,-0.0258,-0.0276,-0.0266,-0.0279,-0.0286,-0.0215,-0.0212,-0.0203,-0.0195,-0.0182,-0.0174,-0.0275,-0.0274,-0.0274,0,0.0159,0.0162,0.0122,0.0126,0.0118,0.0054,0.0063,0.0035,-0.0035,-0.0039,-0.0089,-0.0162,-0.021,-0.0205,-0.0211,-0.0246,-0.0252,-0.0227,-0.02,-0.0193,-0.0186,-0.0176,-0.0167,-0.027,-0.027,-0.0271,-0.0271,0,0.0193,0.0195,0.0198,0.0189,0.0177,0.0172,0.0137,0.0118,0.0074,0.0048,0.0022,-0.0054,-0.0093,-0.0114,-0.0163,-0.0135,-0.0158,-0.0196,-0.0202,-0.0169,-0.0162,-0.0155,-0.0264,-0.0265,-0.0266,-0.0268,0,0,0.0213,0.0221,0.022,0.0232,0.0212,0.0203,0.0214,0.0206,0.0222,0.0155,0.0171,0.0101,0.0055,0.003,-0.0031,-0.0031,-0.0,-0.009,-0.0092,-0.0053,0.0015,-0.0006,-0.0001,-0.0036,-0.0035,-0.0033,0.0004,0,0.0246,0.0279,0.0274,0.0304,0.0318,0.029,0.031,0.0301,0.0277,0.0277,0.0222,0.0199,0.0114,0.0086,0.0076,0.0011,0.0021,-0.0006,-0.0044,-0.0045,-0.0047,0.0008,-0.0045,-0.0017,0.001,0.0012,0.0012,0,0.0277,0.0298,0.0339,0.0372,0.0377,0.0387,0.0414,0.0421,0.0426,0.0408,0.0388,0.0333,0.0312,0.0224,0.0179,0.0162,0.0103,0.0058,0.0057,0.0015,-0.0052,-0.0051,-0.0006,0.0024,0.0023,0.0022,0.0021,0,0.0306,0.0341,0.0379,0.0386,0.0415,0.043,0.044,0.0458,0.0479,0.0485,0.0497,0.0463,0.0432,0.0368,0.0256,0.0217,0.0216,0.0148,0.0089,0.0086,0.0025,0.0014,0.0141,0.0141,0.014,0.014,0.014,0,0.034,0.0364,0.0392,0.041,0.0458,0.0467,0.0516,0.0524,0.0557,0.0603,0.0556,0.058,0.0462,0.0432,0.0326,0.0244,0.0272,0.0129,0.0104,0.0053,0.0046,0.0058,0.0048,0.0142,0.0141,0.0141,0.0141,0,0.035,0.0373,0.0415,0.0457,0.0468,0.0496,0.0543,0.0586,0.0614,0.067,0.0671,0.0673,0.0643,0.0544,0.0452,0.0336,0.0255,0.0218,0.0173,0.0141,0.0106,0.01,0.0163,0.0162,0.0162,0.0162,0.0162,0,0.0353,0.0379,0.0434,0.0461,0.0473,0.0515,0.0553,0.0595,0.0647,0.0728,0.0765,0.0769,0.0788,0.0673,0.0465,0.032,0.0308,0.0174,0.0086,0.0145,0.0113,0.0107,0.0102,0.004,0.0039,0.0038,0.0037,0,0.0357,0.0377,0.0413,0.047,0.051,0.0568,0.0624,0.0677,0.0746,0.0824,0.0922,0.0954,0.0831,0.0661,0.0454,0.0338,0.0189,0.015,0.0243,0.0039,0.0031,-0.0001,-0.0002,0.0029,0.003,0.0031,0.0031,0.0031,0.0348,0.0375,0.0425,0.0477,0.0532,0.0613,0.0664,0.076,0.0871,0.0973,0.1001,0.1017,0.0806,0.0511,0.0354,0.0157,0.0153,0.0045,0.0047,0.005,0.0026,0.0017,0.0009,0.001,0.001,0.0011,0.0011,0,0.0339,0.0375,0.0427,0.0502,0.0565,0.0593,0.0709,0.0794,0.0939,0.099,0.1063,0.0848,0.0677,0.049,0.0158,-0.0015,-0.0036,-0.0036,-0.0055,-0.0048,-0.0041,-0.007,-0.0112,-0.0112,-0.0112,-0.0112,0,0,0.0339,0.0383,0.042,0.0512,0.0561,0.0643,0.071,0.0867,0.0938,0.1012,0.0967,0.0892,0.0659,0.0393,0.0176,0.0033,0.0042,0.0014,0.0114,0.0121,0.0131,-0.0009,-0.0048,0,0,0,0,0]}],[{"header":{"parameterUnit":"m.s-1","parameterCategory":2,"la1":30.2991,"la2":30.254,"lo1":-89.0895,"lo2":-89.0444,"dy":0.0017,"dx":0.0017,"nx":28,"ny":28,"refTime":"2025-01-17T03:00:00:Z","depth":"4","parameterNumber":2,"parameterNumberName":"U-component_of_CURRENTS"},"data":[0,0,0,0,0,0,0,0,0,0,0,0,0,0,0,0,0,0,0,0,0,0,0,0,0,0,0,0,0,0,0,0,0,0,0,0,0,0,0,0,0,0,0,0,0,0,0,0,0,0,0,0,0,0,0,0,0,0,0.0285,0.0285,0,0.037,0.0371,0.0373,0.0454,0.0455,0.0456,0.0456,0.0503,0.0503,0.0504,0,0,0,0,0,0,0,0,0,0,0,0,0,0.0261,0.0261,0.0285,0.0285,0.0286,0.037,0.0371,0.0373,0.0454,0.0455,0.0456,0.0457,0.0502,0.0503,0.0504,0,0,0,0,0,0,0,0,0,0,0,0,0,0.0305,0.0261,0.0285,0.0334,0.0339,0.0369,0.0371,0.0373,0.0454,0.0455,0.0456,0.0457,0.0502,0.0503,0.0504,0.049,0,0,0.0507,0.0507,0,0,0,0,0,0,0,0,0.0302,0.0306,0.0326,0.033,0.0336,0.0399,0.038,0.0409,0.0454,0.0415,0.0456,0.0458,0.0461,0.0465,0.0486,0.0492,0.0494,0.0507,0.0507,0.0508,0.0508,0,0,0,0,0,0,0,0.0299,0.0303,0.0323,0.0326,0.0332,0.0374,0.0382,0.0386,0.0434,0.0418,0.0423,0.0426,0.0464,0.0485,0.0487,0.0495,0.0507,0.0508,0.0508,0.0509,0.0599,0.0601,0,0,0,0,0,0,0.0275,0.03,0.032,0.0325,0.0316,0.0373,0.0382,0.0381,0.0435,0.0443,0.0425,0.0429,0.0483,0.0486,0.0489,0.0563,0.0508,0.0509,0.0509,0.0597,0.06,0.0601,0,0,0,0,0,0,0.0274,0.0276,0.0317,0.0312,0.0319,0.0372,0.0371,0.0382,0.0427,0.0439,0.0448,0.046,0.0483,0.0488,0.0521,0.0562,0.0509,0.051,0.0595,0.0598,0.0601,0.0654,0,0,0,0,0,0,0.0273,0.0275,0.0277,0.0309,0.0318,0.0334,0.037,0.0383,0.0423,0.043,0.0471,0.0476,0.0485,0.0519,0.0522,0.0562,0.0511,0.0593,0.0596,0.06,0.065,0.0658,0.0666,0,0,0,0,0,0.0272,0.0263,0.0276,0.0279,0.0315,0.0333,0.0342,0.0386,0.0424,0.0434,0.0479,0.0476,0.0544,0.0521,0.0523,0.0565,0.0591,0.0595,0.0599,0.0647,0.0657,0.0665,0,0,0,0,0,0,0.0251,0.0271,0.0286,0.0284,0.0306,0.0345,0.0368,0.0396,0.0443,0.047,0.0487,0.0494,0.0533,0.0543,0.0517,0.0604,0.0571,0.0576,0.0607,0.0616,0.0624,0.0625,0.0511,0,0,0,0,0,0.0244,0.0245,0.027,0.0268,0.0289,0.0335,0.0354,0.0387,0.0425,0.045,0.0474,0.0516,0.0549,0.0577,0.0588,0.0635,0.0626,0.0668,0.0676,0.0682,0.0687,0.069,0.0698,0.0615,0.0615,0.0615,0,0,0.0232,0.0244,0.0245,0.0264,0.03,0.0331,0.0352,0.0392,0.0435,0.0444,0.0512,0.0526,0.056,0.0612,0.0634,0.0631,0.0707,0.0687,0.0693,0.0694,0.0695,0.0703,0.071,0.0618,0.0617,0.0617,0,0,0.0217,0.0231,0.024,0.0264,0.0309,0.0339,0.0353,0.0405,0.0453,0.0507,0.0531,0.0568,0.0622,0.0654,0.0681,0.0738,0.073,0.0757,0.0819,0.0823,0.0829,0.0834,0.0852,0.0859,0.0783,0.0783,0.0783,0,0.0211,0.0224,0.0243,0.0269,0.0299,0.0346,0.0381,0.0432,0.0485,0.0522,0.0537,0.0631,0.0645,0.0723,0.0756,0.0754,0.0761,0.0779,0.0831,0.0836,0.084,0.0857,0.0864,0.0786,0.0786,0.0785,0.0785,0,0.0211,0.0234,0.0248,0.0298,0.0325,0.0363,0.0428,0.0468,0.0532,0.0578,0.066,0.0696,0.0758,0.0775,0.0792,0.0851,0.0847,0.0819,0.0801,0.0851,0.0867,0.0873,0.0791,0.0789,0.0789,0.0788,0,0,0.0182,0.0238,0.025,0.0286,0.0355,0.0379,0.0451,0.0523,0.059,0.0654,0.0733,0.0805,0.0836,0.0868,0.0895,0.0915,0.0956,0.0901,0.0899,0.091,0.0985,0.0856,0.0849,0.094,0.0941,0.0941,0.0989,0,0.0193,0.0238,0.0266,0.0329,0.0371,0.0427,0.0497,0.0566,0.0637,0.0716,0.0788,0.0868,0.0877,0.0928,0.0951,0.0942,0.0972,0.0947,0.0943,0.0943,0.0813,0.085,0.0944,0.0993,0.0994,0.0995,0.0996,0,0.02,0.0233,0.029,0.0373,0.0401,0.0455,0.0565,0.064,0.075,0.0805,0.089,0.0931,0.1007,0.0993,0.1035,0.1024,0.102,0.1008,0.1009,0.0869,0.0822,0.0929,0.1006,0.1005,0.1004,0.1003,0.1003,0,0.0187,0.0256,0.0303,0.033,0.0426,0.0486,0.0573,0.0681,0.075,0.0882,0.0921,0.101,0.1074,0.1074,0.1049,0.1061,0.105,0.1057,0.0944,0.0936,0.1014,0.1008,0.1076,0.1076,0.1076,0.1076,0.1076,0,0.0194,0.0235,0.0314,0.0349,0.0433,0.0524,0.0636,0.0721,0.0841,0.0913,0.0998,0.1029,0.1095,0.1084,0.1063,0.1002,0.1065,0.0957,0.0934,0.104,0.1036,0.1019,0.1012,0.1078,0.1078,0.1077,0.1077,0,0.0176,0.0221,0.0275,0.0386,0.0431,0.0514,0.0665,0.0735,0.0866,0.0955,0.0997,0.1064,0.1056,0.1057,0.1048,0.1015,0.096,0.0918,0.1033,0.1015,0.0861,0.0857,0.0849,0.0845,0.0841,0.0838,0.0835,0,0.0169,0.019,0.0291,0.0336,0.04,0.0524,0.0603,0.0744,0.0803,0.0937,0.0957,0.0996,0.1016,0.0916,0.0914,0.0869,0.0845,0.0852,0.0871,0.0856,0.0836,0.0837,0.0838,0.0829,0.0829,0.0828,0.0827,0,0.0147,0.0179,0.0231,0.0315,0.0396,0.0468,0.0602,0.0622,0.0776,0.0869,0.09,0.0897,0.0878,0.0848,0.0804,0.0762,0.0867,0.0815,0.0824,0.0842,0.0833,0.0816,0.0821,0.0814,0.0816,0.0817,0.0818,0,0.0131,0.0148,0.0212,0.0283,0.0376,0.0428,0.0482,0.056,0.0627,0.0785,0.0767,0.0802,0.0863,0.0785,0.072,0.0682,0.0699,0.0712,0.0727,0.0741,0.0671,0.0642,0.0547,0,0,0,0,0,0.0114,0.013,0.0181,0.025,0.0338,0.0387,0.0487,0.0532,0.0644,0.065,0.0726,0.0697,0.0668,0.0654,0.0591,0.0637,0.0672,0.056,0.0689,0.0744,0.0758,0.0679,0,0,0,0,0,0,0.0108,0.0148,0.0158,0.0216,0.0261,0.0331,0.0388,0.0444,0.0456,0.0576,0.0541,0.0655,0.0596,0.0688,0.0577,0.0574,0.0641,0.0583,0.0581,0.0735,0.0749,0.076,0.0684,0,0,0,0,0]},{"header":{"parameterUnit":"m.s-1","parameterCategory":2,"la1":30.2991,"la2":30.254,"lo1":-89.0895,"lo2":-89.0444,"dy":0.0017,"dx":0.0017,"nx":28,"ny":28,"refTime":"2025-01-17T03:00:00:Z","depth":"4","parameterNumber":3,"parameterNumberName":"V-component_of_CURRENTS"},"data":[0,0,0,0,0,0,0,0,0,0,0,0,0,0,0,0,0,0,0,0,0,0,0,0,0,0,0,0,0,0,0,0,0,0,0,0,0,0,0,0,0,0,0,0,0,0,0,0,0,0,0,0,0,0,0,0,0,0,0.0295,0.0295,0,0.0268,0.0268,0.0268,0.025,0.025,0.025,0.025,0.0227,0.0227,0.0226,0,0,0,0,0,0,0,0,0,0,0,0,0,0.031,0.031,0.0295,0.0295,0.0295,0.0269,0.0268,0.0267,0.025,0.025,0.025,0.025,0.0228,0.0227,0.0226,0,0,0,0,0,0,0,0,0,0,0,0,0,0.0294,0.031,0.0295,0.0284,0.0283,0.0269,0.0268,0.0267,0.025,0.025,0.025,0.0251,0.0228,0.0227,0.0226,0.0217,0,0,0.0223,0.0222,0,0,0,0,0,0,0,0,0.0294,0.0293,0.0286,0.0285,0.0284,0.0265,0.0265,0.0251,0.025,0.0261,0.025,0.0251,0.0241,0.0239,0.0231,0.0216,0.0215,0.0223,0.0222,0.0222,0.0221,0,0,0,0,0,0,0,0.0296,0.0294,0.0282,0.0286,0.0285,0.0274,0.0272,0.0262,0.0249,0.026,0.0259,0.0259,0.024,0.0232,0.023,0.0215,0.0223,0.0222,0.0221,0.0221,0.0151,0.0149,0,0,0,0,0,0,0.0304,0.0295,0.0283,0.0282,0.0292,0.0274,0.0271,0.0269,0.0249,0.0247,0.0259,0.0258,0.0234,0.0232,0.023,0.0204,0.0222,0.0221,0.022,0.0152,0.015,0.0149,0,0,0,0,0,0,0.0304,0.0303,0.0284,0.0289,0.0287,0.0274,0.0271,0.0268,0.0265,0.0249,0.0246,0.0259,0.0234,0.0231,0.0215,0.0204,0.022,0.0219,0.0153,0.0151,0.015,0.0162,0,0,0,0,0,0,0.0305,0.0303,0.031,0.029,0.0287,0.0282,0.0271,0.0268,0.0265,0.0264,0.0248,0.0246,0.0234,0.0216,0.0214,0.0202,0.0218,0.0155,0.0152,0.015,0.0163,0.0161,0.0159,0,0,0,0,0,0.0305,0.0313,0.031,0.0309,0.0294,0.0282,0.0279,0.0269,0.0265,0.0265,0.0246,0.0246,0.0199,0.0215,0.0212,0.02,0.0156,0.0153,0.015,0.0164,0.0161,0.0159,0,0,0,0,0,0,0.0324,0.0312,0.0308,0.0313,0.0302,0.028,0.0286,0.0273,0.0257,0.0259,0.0239,0.0235,0.021,0.0202,0.022,0.0169,0.0174,0.0171,0.0185,0.0182,0.018,0.0193,0.0218,0,0,0,0,0,0.0332,0.0336,0.0318,0.0324,0.0323,0.0305,0.0301,0.029,0.0272,0.0266,0.0248,0.0224,0.0195,0.0189,0.0163,0.0149,0.0131,0.0134,0.0131,0.013,0.0135,0.0082,0.0076,0.014,0.014,0.014,0,0,0.0341,0.0336,0.0338,0.0329,0.0323,0.0316,0.0303,0.03,0.0289,0.0267,0.0249,0.0218,0.0186,0.0158,0.0147,0.0155,0.0104,0.0126,0.0126,0.0132,0.0078,0.0072,0.0067,0.0138,0.0138,0.0138,0,0,0.0357,0.0359,0.0365,0.0357,0.035,0.0335,0.0335,0.0311,0.0301,0.0281,0.0247,0.0208,0.0184,0.0145,0.0126,0.0097,0.0089,0.0089,0.0097,0.0045,0.004,0.0035,0.0018,0.0011,0.0094,0.0094,0.0094,0,0.037,0.0372,0.0365,0.0366,0.0361,0.0344,0.034,0.0327,0.0296,0.0278,0.0281,0.0198,0.0174,0.0119,0.0107,0.0093,0.0077,0.0115,0.0044,0.0039,0.0033,0.0017,0.001,0.0094,0.0094,0.0094,0.0094,0,0.0381,0.0387,0.0394,0.0386,0.0377,0.0376,0.0354,0.0339,0.0324,0.0296,0.0245,0.0201,0.0153,0.013,0.0117,0.0058,0.0063,0.0045,0.0057,0.0028,0.0012,0.0005,0.0094,0.0094,0.0094,0.0094,0,0,0.0396,0.04,0.0404,0.0402,0.0388,0.0377,0.0364,0.0334,0.0317,0.0281,0.0242,0.0185,0.0156,0.0131,0.0093,0.005,0.0003,0.0042,0.0039,0.0038,-0.0086,-0.0064,-0.007,-0.0026,-0.0028,-0.0029,-0.0077,0,0.0408,0.0418,0.0411,0.041,0.0409,0.0387,0.0377,0.0345,0.0316,0.0273,0.0216,0.0173,0.0159,0.0135,0.0086,0.0012,-0.0019,0.0019,-0.0069,-0.0071,-0.0038,-0.008,-0.0035,-0.0083,-0.0085,-0.0086,-0.0087,0,0.0415,0.0421,0.0431,0.0419,0.0417,0.042,0.0388,0.0375,0.0317,0.0291,0.0234,0.0185,0.0112,0.0107,-0.0007,0.002,-0.0022,-0.007,-0.0074,-0.0062,-0.0064,-0.0054,-0.0101,-0.01,-0.0099,-0.0098,-0.0097,0,0.0424,0.0428,0.0438,0.0436,0.0425,0.0431,0.0431,0.0389,0.0374,0.0309,0.0279,0.0184,0.0145,0.0059,-0.0026,-0.0019,-0.0148,-0.0156,-0.0172,-0.0169,-0.0177,-0.0172,-0.0228,-0.0228,-0.0228,-0.0228,-0.0228,0,0.0429,0.0435,0.0455,0.0465,0.0475,0.0463,0.0468,0.0447,0.041,0.0383,0.0306,0.0247,0.0131,0.0041,-0.0034,-0.0124,-0.0152,-0.0174,-0.019,-0.0169,-0.0163,-0.0181,-0.0175,-0.023,-0.0229,-0.0229,-0.0229,0,0.0428,0.0445,0.0454,0.0471,0.0487,0.0498,0.0516,0.0503,0.0481,0.0441,0.0423,0.0294,0.0176,0.0063,-0.0082,-0.0118,-0.022,-0.0238,-0.0188,-0.02,-0.0198,-0.0191,-0.0263,-0.0263,-0.0263,-0.0263,-0.0263,0,0.0425,0.0433,0.0472,0.0495,0.0516,0.0544,0.0559,0.0547,0.0528,0.0461,0.0424,0.0311,0.022,0.0025,-0.0087,-0.0221,-0.0232,-0.0253,-0.0241,-0.0198,-0.0206,-0.02,-0.0193,-0.0262,-0.0262,-0.0262,-0.0262,0,0.0406,0.0431,0.0445,0.0503,0.0536,0.055,0.0577,0.0562,0.0536,0.0524,0.0415,0.031,0.0175,0.0017,-0.0075,-0.0176,-0.0232,-0.0251,-0.0252,-0.0242,-0.0198,-0.0205,-0.0199,-0.0262,-0.0262,-0.0262,-0.0262,0,0.0395,0.04,0.0441,0.0481,0.0535,0.0547,0.055,0.0527,0.0507,0.0452,0.0414,0.027,0.0197,0.004,-0.0064,-0.0146,-0.0161,-0.0161,-0.0167,-0.0168,-0.0126,-0.0055,-0.0095,0,0,0,0,0,0.0371,0.0385,0.0417,0.0442,0.0499,0.0533,0.0553,0.0542,0.0529,0.0463,0.0446,0.0319,0.016,0.0056,-0.0025,-0.0065,-0.0178,-0.0158,-0.018,-0.0259,-0.0259,-0.0224,0,0,0,0,0,0,0.0359,0.0389,0.0399,0.0422,0.0447,0.0476,0.05,0.0478,0.0433,0.0424,0.0314,0.0324,0.0134,0.02,-0.0025,-0.0051,-0.0067,-0.0227,-0.0228,-0.0259,-0.0259,-0.026,-0.0224,0,0,0,0,0]}]]